,,,PA_Meas_PMT16A,,PR_Meas_QMR101_102,,RH_Meas_QMH101,,SR_Meas_QMS101,,TA_Meas_QMH101,,GenWind,,GenWind,
date,time,status,PA,status,PR,status,RH,status,SR,status,TA,status,DirAvg,status,SpdAvg,
2009-04-27, 00:00:04,VALID,1009.9,VALID,0,VALID,4,VALID,0.105969,VALID,24.686,VALID,40,VALID,0.345313,
2009-04-27, 00:01:04,VALID,1009.89,VALID,0,VALID,4,VALID,0.105969,VALID,24.6666,VALID,40,VALID,0.251563,
2009-04-27, 00:02:04,VALID,1009.9,VALID,0,VALID,4,VALID,0.211938,VALID,24.6452,VALID,38,VALID,0.323438,
2009-04-27, 00:03:04,VALID,1009.91,VALID,0,VALID,4,VALID,0.105969,VALID,24.6471,VALID,38,VALID,0.198047,
2009-04-27, 00:04:04,VALID,1009.94,VALID,0,VALID,4,VALID,0.105969,VALID,24.6276,VALID,38,VALID,0,
2009-04-27, 00:05:04,VALID,1009.9,VALID,0,VALID,4,VALID,0.105969,VALID,24.6081,VALID,38,VALID,0,
2009-04-27, 00:06:04,VALID,1009.9,VALID,0,VALID,4,VALID,0.105969,VALID,24.6062,VALID,38,VALID,0,
2009-04-27, 00:07:04,VALID,1009.86,VALID,0,VALID,4,VALID,0.105969,VALID,24.5867,VALID,38,VALID,0,
2009-04-27, 00:08:04,VALID,1009.83,VALID,0,VALID,4,VALID,0.105969,VALID,24.5886,VALID,38,VALID,0,
2009-04-27, 00:09:04,VALID,1009.81,VALID,0,VALID,4,VALID,0.105969,VALID,24.5672,VALID,38,VALID,0,
2009-04-27, 00:10:04,VALID,1009.76,VALID,0,VALID,4,VALID,0,VALID,24.5886,VALID,38,VALID,0,
2009-04-27, 00:11:04,VALID,1009.73,VALID,0,VALID,4,VALID,0.105969,VALID,24.5691,VALID,38,VALID,0,
2009-04-27, 00:12:04,VALID,1009.72,VALID,0,VALID,4,VALID,0.105969,VALID,24.5496,VALID,38,VALID,0,
2009-04-27, 00:13:04,VALID,1009.75,VALID,0,VALID,4,VALID,0.105969,VALID,24.5496,VALID,38,VALID,0,
2009-04-27, 00:14:04,VALID,1009.74,VALID,0,VALID,4,VALID,0,VALID,24.5301,VALID,38,VALID,0,
2009-04-27, 00:15:04,VALID,1009.75,VALID,0,VALID,4,VALID,0.105969,VALID,24.5301,VALID,38,VALID,0,
2009-04-27, 00:16:04,VALID,1009.74,VALID,0,VALID,4,VALID,0.105969,VALID,24.5106,VALID,38,VALID,0,
2009-04-27, 00:17:04,VALID,1009.73,VALID,0,VALID,4,VALID,0.105969,VALID,24.5106,VALID,38,VALID,0,
2009-04-27, 00:18:04,VALID,1009.74,VALID,0,VALID,4,VALID,0,VALID,24.5106,VALID,38,VALID,0,
2009-04-27, 00:19:04,VALID,1009.73,VALID,0,VALID,4,VALID,0.105969,VALID,24.5106,VALID,20,VALID,0,
2009-04-27, 00:20:04,VALID,1009.74,VALID,0,VALID,4,VALID,0.105969,VALID,24.4911,VALID,20,VALID,0,
2009-04-27, 00:21:04,VALID,1009.75,VALID,0,VALID,4,VALID,0,VALID,24.4717,VALID,20,VALID,0,
2009-04-27, 00:22:04,VALID,1009.77,VALID,0,VALID,4,VALID,0,VALID,24.4522,VALID,20,VALID,0,
2009-04-27, 00:23:04,VALID,1009.74,VALID,0,VALID,4,VALID,0,VALID,24.4735,VALID,20,VALID,0,
2009-04-27, 00:24:04,VALID,1009.77,VALID,0,VALID,4,VALID,0.105969,VALID,24.4132,VALID,20,VALID,0,
2009-04-27, 00:25:04,VALID,1009.78,VALID,0,VALID,4,VALID,0.105969,VALID,24.4327,VALID,20,VALID,0,
2009-04-27, 00:26:04,VALID,1009.79,VALID,0,VALID,4,VALID,0.105969,VALID,24.4132,VALID,20,VALID,0,
2009-04-27, 00:27:04,VALID,1009.8,VALID,0,VALID,4,VALID,0,VALID,24.4327,VALID,20,VALID,0,
2009-04-27, 00:28:04,VALID,1009.81,VALID,0,VALID,4,VALID,0.105969,VALID,24.4132,VALID,20,VALID,0,
2009-04-27, 00:29:04,VALID,1009.85,VALID,0,VALID,4,VALID,0.105969,VALID,24.4132,VALID,20,VALID,0,
2009-04-27, 00:30:04,VALID,1009.85,VALID,0,VALID,4,VALID,0.105969,VALID,24.3937,VALID,20,VALID,0,
2009-04-27, 00:31:04,VALID,1009.84,VALID,0,VALID,4,VALID,0,VALID,24.4132,VALID,20,VALID,0,
2009-04-27, 00:32:04,VALID,1009.85,VALID,0,VALID,4,VALID,0.105969,VALID,24.4132,VALID,20,VALID,0,
2009-04-27, 00:33:04,VALID,1009.84,VALID,0,VALID,4,VALID,0.105969,VALID,24.3937,VALID,20,VALID,0,
2009-04-27, 00:34:04,VALID,1009.84,VALID,0,VALID,4,VALID,0.105969,VALID,24.4132,VALID,20,VALID,0,
2009-04-27, 00:35:04,VALID,1009.82,VALID,0,VALID,4,VALID,0.105969,VALID,24.3937,VALID,20,VALID,0,
2009-04-27, 00:36:04,VALID,1009.78,VALID,0,VALID,4,VALID,0.105969,VALID,24.3937,VALID,19,VALID,0,
2009-04-27, 00:37:04,VALID,1009.77,VALID,0,VALID,4,VALID,0.105969,VALID,24.3724,VALID,19,VALID,0,
2009-04-27, 00:38:04,VALID,1009.77,VALID,0,VALID,4,VALID,0.105969,VALID,24.3742,VALID,19,VALID,0,
2009-04-27, 00:39:04,VALID,1009.78,VALID,0,VALID,4,VALID,0.105969,VALID,24.3529,VALID,19,VALID,0,
2009-04-27, 00:40:04,VALID,1009.81,VALID,0,VALID,4,VALID,0.105969,VALID,24.3742,VALID,19,VALID,0,
2009-04-27, 00:41:04,VALID,1009.79,VALID,0,VALID,4,VALID,0.105969,VALID,24.3352,VALID,19,VALID,0,
2009-04-27, 00:42:04,VALID,1009.83,VALID,0,VALID,4,VALID,0,VALID,24.3547,VALID,19,VALID,0,
2009-04-27, 00:43:04,VALID,1009.85,VALID,0,VALID,4,VALID,0.105969,VALID,24.3352,VALID,19,VALID,0,
2009-04-27, 00:44:04,VALID,1009.85,VALID,0,VALID,4,VALID,0.105969,VALID,24.3158,VALID,19,VALID,0,
2009-04-27, 00:45:04,VALID,1009.84,VALID,0,VALID,4,VALID,0.105969,VALID,24.3352,VALID,19,VALID,0,
2009-04-27, 00:46:04,VALID,1009.86,VALID,0,VALID,4,VALID,0.105969,VALID,24.3139,VALID,19,VALID,0,
2009-04-27, 00:47:04,VALID,1009.88,VALID,0,VALID,4,VALID,0,VALID,24.3158,VALID,19,VALID,0,
2009-04-27, 00:48:04,VALID,1009.88,VALID,0,VALID,4,VALID,0.105969,VALID,24.3158,VALID,19,VALID,0,
2009-04-27, 00:49:04,VALID,1009.87,VALID,0,VALID,4,VALID,0.105969,VALID,24.2963,VALID,19,VALID,0,
2009-04-27, 00:50:04,VALID,1009.89,VALID,0,VALID,4,VALID,0.105969,VALID,24.2749,VALID,19,VALID,0,
2009-04-27, 00:51:04,VALID,1009.85,VALID,0,VALID,4,VALID,0.105969,VALID,24.2963,VALID,19,VALID,0,
2009-04-27, 00:52:04,VALID,1009.87,VALID,0,VALID,4,VALID,0.105969,VALID,24.2963,VALID,19,VALID,0,
2009-04-27, 00:53:04,VALID,1009.89,VALID,0,VALID,4,VALID,0,VALID,24.2963,VALID,19,VALID,0,
2009-04-27, 00:54:04,VALID,1009.89,VALID,0,VALID,4,VALID,0.105969,VALID,24.2768,VALID,19,VALID,0,
2009-04-27, 00:55:04,VALID,1009.91,VALID,0,VALID,4,VALID,0.105969,VALID,24.2768,VALID,19,VALID,0,
2009-04-27, 00:56:04,VALID,1009.9,VALID,0,VALID,4,VALID,0,VALID,24.2768,VALID,19,VALID,0,
2009-04-27, 00:57:04,VALID,1009.89,VALID,0,VALID,4,VALID,0,VALID,24.2768,VALID,19,VALID,0,
2009-04-27, 00:58:04,VALID,1009.88,VALID,0,VALID,4,VALID,0,VALID,24.2768,VALID,19,VALID,0,
2009-04-27, 00:59:04,VALID,1009.87,VALID,0,VALID,4,VALID,0.105969,VALID,24.2768,VALID,19,VALID,0,
2009-04-27, 01:00:04,VALID,1009.82,VALID,0,VALID,4,VALID,0.105969,VALID,24.2555,VALID,19,VALID,0,
2009-04-27, 01:01:04,VALID,1009.81,VALID,0,VALID,4,VALID,0.105969,VALID,24.2768,VALID,19,VALID,0,
2009-04-27, 01:02:04,VALID,1009.78,VALID,0,VALID,4,VALID,0.105969,VALID,24.2573,VALID,19,VALID,0,
2009-04-27, 01:03:04,VALID,1009.77,VALID,0,VALID,4,VALID,0.105969,VALID,24.2768,VALID,17,VALID,0,
2009-04-27, 01:04:04,VALID,1009.77,VALID,0,VALID,4,VALID,0.105969,VALID,24.2768,VALID,17,VALID,0,
2009-04-27, 01:05:04,VALID,1009.78,VALID,0,VALID,4,VALID,0.105969,VALID,24.2555,VALID,17,VALID,0,
2009-04-27, 01:06:04,VALID,1009.79,VALID,0,VALID,4,VALID,0.105969,VALID,24.236,VALID,17,VALID,0,
2009-04-27, 01:07:04,VALID,1009.79,VALID,0,VALID,4,VALID,0.105969,VALID,24.236,VALID,17,VALID,0,
2009-04-27, 01:08:04,VALID,1009.84,VALID,0,VALID,4,VALID,0,VALID,24.2378,VALID,17,VALID,0,
2009-04-27, 01:09:04,VALID,1009.85,VALID,0,VALID,4,VALID,0,VALID,24.2573,VALID,17,VALID,0,
2009-04-27, 01:10:04,VALID,1009.85,VALID,0,VALID,4,VALID,0.105969,VALID,24.2378,VALID,17,VALID,0,
2009-04-27, 01:11:04,VALID,1009.84,VALID,0,VALID,4,VALID,0.105969,VALID,24.2183,VALID,17,VALID,0,
2009-04-27, 01:12:04,VALID,1009.84,VALID,0,VALID,4,VALID,0.105969,VALID,24.2165,VALID,17,VALID,0,
2009-04-27, 01:13:04,VALID,1009.85,VALID,0,VALID,4,VALID,0.105969,VALID,24.2183,VALID,17,VALID,0,
2009-04-27, 01:14:04,VALID,1009.83,VALID,0,VALID,4,VALID,0.105969,VALID,24.2378,VALID,7,VALID,0,
2009-04-27, 01:15:04,VALID,1009.79,VALID,0,VALID,4,VALID,0.105969,VALID,24.2378,VALID,350,VALID,0,
2009-04-27, 01:16:05,VALID,1009.83,VALID,0,VALID,4,VALID,0.105969,VALID,24.2378,VALID,350,VALID,0,
2009-04-27, 01:17:05,VALID,1009.81,VALID,0,VALID,4,VALID,0.105969,VALID,24.2573,VALID,350,VALID,0,
2009-04-27, 01:18:05,VALID,1009.81,VALID,0,VALID,4,VALID,0.105969,VALID,24.2165,VALID,350,VALID,0,
2009-04-27, 01:19:05,VALID,1009.82,VALID,0,VALID,4,VALID,0.105969,VALID,24.236,VALID,350,VALID,0,
2009-04-27, 01:20:05,VALID,1009.81,VALID,0,VALID,4,VALID,0.105969,VALID,24.2378,VALID,350,VALID,0,
2009-04-27, 01:21:05,VALID,1009.83,VALID,0,VALID,4,VALID,0.105969,VALID,24.2165,VALID,350,VALID,0,
2009-04-27, 01:22:05,VALID,1009.81,VALID,0,VALID,4,VALID,0.105969,VALID,24.2378,VALID,350,VALID,0,
2009-04-27, 01:23:05,VALID,1009.82,VALID,0,VALID,4,VALID,0,VALID,24.2396,VALID,348,VALID,0,
2009-04-27, 01:24:05,VALID,1009.79,VALID,0,VALID,4,VALID,0,VALID,24.2786,VALID,348,VALID,0,
2009-04-27, 01:25:05,VALID,1009.81,VALID,0,VALID,4,VALID,0,VALID,24.2573,VALID,348,VALID,0,
2009-04-27, 01:26:05,VALID,1009.81,VALID,0,VALID,4,VALID,0,VALID,24.2573,VALID,348,VALID,0,
2009-04-27, 01:27:05,VALID,1009.81,VALID,0,VALID,4,VALID,0,VALID,24.2786,VALID,348,VALID,0,
2009-04-27, 01:28:05,VALID,1009.8,VALID,0,VALID,4,VALID,0,VALID,24.2378,VALID,348,VALID,0,
2009-04-27, 01:29:05,VALID,1009.81,VALID,0,VALID,4,VALID,0.105969,VALID,24.2573,VALID,348,VALID,0,
2009-04-27, 01:30:05,VALID,1009.8,VALID,0,VALID,4,VALID,0.105969,VALID,24.2573,VALID,348,VALID,0,
2009-04-27, 01:31:05,VALID,1009.82,VALID,0,VALID,4,VALID,0.105969,VALID,24.2165,VALID,8,VALID,0,
2009-04-27, 01:32:05,VALID,1009.76,VALID,0,VALID,4,VALID,0.105969,VALID,24.2378,VALID,18,VALID,0,
2009-04-27, 01:33:05,VALID,1009.72,VALID,0,VALID,4,VALID,0.105969,VALID,24.197,VALID,18,VALID,0,
2009-04-27, 01:34:05,VALID,1009.7,VALID,0,VALID,4,VALID,0.105969,VALID,24.2183,VALID,18,VALID,0,
2009-04-27, 01:35:05,VALID,1009.63,VALID,0,VALID,4,VALID,0.211938,VALID,24.197,VALID,18,VALID,0,
2009-04-27, 01:36:05,VALID,1009.6,VALID,0,VALID,4,VALID,0.105969,VALID,24.1988,VALID,18,VALID,0,
2009-04-27, 01:37:05,VALID,1009.58,VALID,0,VALID,4,VALID,0.105969,VALID,24.158,VALID,18,VALID,0,
2009-04-27, 01:38:05,VALID,1009.55,VALID,0,VALID,4,VALID,0.105969,VALID,24.1793,VALID,18,VALID,0,
2009-04-27, 01:39:05,VALID,1009.57,VALID,0,VALID,4,VALID,0.105969,VALID,24.1385,VALID,18,VALID,0,
2009-04-27, 01:40:05,VALID,1009.57,VALID,0,VALID,4,VALID,0.105969,VALID,24.1599,VALID,18,VALID,0,
2009-04-27, 01:41:05,VALID,1009.57,VALID,0,VALID,4,VALID,0.105969,VALID,24.1793,VALID,18,VALID,0,
2009-04-27, 01:42:05,VALID,1009.53,VALID,0,VALID,4,VALID,0.105969,VALID,24.1793,VALID,18,VALID,0,
2009-04-27, 01:43:05,VALID,1009.51,VALID,0,VALID,4,VALID,0.105969,VALID,24.1988,VALID,18,VALID,0,
2009-04-27, 01:44:05,VALID,1009.5,VALID,0,VALID,4,VALID,0,VALID,24.1812,VALID,18,VALID,0,
2009-04-27, 01:45:05,VALID,1009.48,VALID,0,VALID,4,VALID,0,VALID,24.2007,VALID,18,VALID,0,
2009-04-27, 01:46:05,VALID,1009.51,VALID,0,VALID,4,VALID,0,VALID,24.1812,VALID,18,VALID,0,
2009-04-27, 01:47:05,VALID,1009.5,VALID,0,VALID,4,VALID,0,VALID,24.1599,VALID,18,VALID,0,
2009-04-27, 01:48:05,VALID,1009.5,VALID,0,VALID,4,VALID,0,VALID,24.1617,VALID,18,VALID,0,
2009-04-27, 01:49:05,VALID,1009.47,VALID,0,VALID,4,VALID,0,VALID,24.1617,VALID,18,VALID,0,
2009-04-27, 01:50:05,VALID,1009.51,VALID,0,VALID,4,VALID,0,VALID,24.1617,VALID,18,VALID,0,
2009-04-27, 01:51:05,VALID,1009.5,VALID,0,VALID,4,VALID,0,VALID,24.1617,VALID,18,VALID,0,
2009-04-27, 01:52:05,VALID,1009.5,VALID,0,VALID,4,VALID,0,VALID,24.1812,VALID,18,VALID,0,
2009-04-27, 01:53:05,VALID,1009.52,VALID,0,VALID,4,VALID,0,VALID,24.1812,VALID,18,VALID,0,
2009-04-27, 01:54:05,VALID,1009.48,VALID,0,VALID,4,VALID,0,VALID,24.1599,VALID,18,VALID,0,
2009-04-27, 01:55:05,VALID,1009.5,VALID,0,VALID,4,VALID,0,VALID,24.1812,VALID,18,VALID,0,
2009-04-27, 01:56:05,VALID,1009.48,VALID,0,VALID,4,VALID,0,VALID,24.2007,VALID,60,VALID,0,
2009-04-27, 01:57:05,VALID,1009.48,VALID,0,VALID,4,VALID,0,VALID,24.2202,VALID,60,VALID,0,
2009-04-27, 01:58:05,VALID,1009.44,VALID,0,VALID,4,VALID,0,VALID,24.2202,VALID,60,VALID,0,
2009-04-27, 01:59:05,VALID,1009.41,VALID,0,VALID,4,VALID,0.105969,VALID,24.2183,VALID,60,VALID,0,
2009-04-27, 02:00:05,VALID,1009.43,VALID,0,VALID,4,VALID,0.105969,VALID,24.2183,VALID,60,VALID,0,
2009-04-27, 02:01:05,VALID,1009.4,VALID,0,VALID,4,VALID,0.105969,VALID,24.2183,VALID,60,VALID,0,
2009-04-27, 02:02:05,VALID,1009.43,VALID,0,VALID,4,VALID,0,VALID,24.2183,VALID,60,VALID,0,
2009-04-27, 02:03:05,VALID,1009.44,VALID,0,VALID,4,VALID,0.105969,VALID,24.1988,VALID,60,VALID,0,
2009-04-27, 02:04:05,VALID,1009.46,VALID,0,VALID,4,VALID,0,VALID,24.1988,VALID,60,VALID,0,
2009-04-27, 02:05:05,VALID,1009.51,VALID,0,VALID,4,VALID,0.105969,VALID,24.1988,VALID,60,VALID,0,
2009-04-27, 02:06:05,VALID,1009.52,VALID,0,VALID,4,VALID,0.105969,VALID,24.1775,VALID,60,VALID,0,
2009-04-27, 02:07:05,VALID,1009.56,VALID,0,VALID,4,VALID,0.105969,VALID,24.1988,VALID,60,VALID,0,
2009-04-27, 02:08:05,VALID,1009.57,VALID,0,VALID,4,VALID,0.105969,VALID,24.1793,VALID,60,VALID,0,
2009-04-27, 02:09:05,VALID,1009.59,VALID,0,VALID,4,VALID,0.105969,VALID,24.1793,VALID,60,VALID,0,
2009-04-27, 02:10:05,VALID,1009.59,VALID,0,VALID,4,VALID,0.105969,VALID,24.1793,VALID,60,VALID,0,
2009-04-27, 02:11:05,VALID,1009.58,VALID,0,VALID,4,VALID,0.105969,VALID,24.1793,VALID,60,VALID,0,
2009-04-27, 02:12:05,VALID,1009.59,VALID,0,VALID,4,VALID,0.105969,VALID,24.1599,VALID,60,VALID,0,
2009-04-27, 02:13:05,VALID,1009.6,VALID,0,VALID,4,VALID,0.105969,VALID,24.1404,VALID,60,VALID,0,
2009-04-27, 02:14:05,VALID,1009.57,VALID,0,VALID,4,VALID,0,VALID,24.1422,VALID,60,VALID,0,
2009-04-27, 02:15:05,VALID,1009.6,VALID,0,VALID,4,VALID,0,VALID,24.1422,VALID,60,VALID,0,
2009-04-27, 02:16:05,VALID,1009.6,VALID,0,VALID,4,VALID,0,VALID,24.1422,VALID,60,VALID,0,
2009-04-27, 02:17:05,VALID,1009.61,VALID,0,VALID,4,VALID,0,VALID,24.1227,VALID,60,VALID,0,
2009-04-27, 02:18:05,VALID,1009.6,VALID,0,VALID,4,VALID,0,VALID,24.1032,VALID,60,VALID,0,
2009-04-27, 02:19:05,VALID,1009.6,VALID,0,VALID,4,VALID,0,VALID,24.1227,VALID,60,VALID,0,
2009-04-27, 02:20:05,VALID,1009.62,VALID,0,VALID,4,VALID,0,VALID,24.1032,VALID,60,VALID,0,
2009-04-27, 02:21:05,VALID,1009.61,VALID,0,VALID,4,VALID,0,VALID,24.1032,VALID,60,VALID,0,
2009-04-27, 02:22:05,VALID,1009.64,VALID,0,VALID,4,VALID,0,VALID,24.0819,VALID,60,VALID,0,
2009-04-27, 02:23:05,VALID,1009.61,VALID,0,VALID,4,VALID,0,VALID,24.1032,VALID,60,VALID,0,
2009-04-27, 02:24:05,VALID,1009.63,VALID,0,VALID,4,VALID,0,VALID,24.0819,VALID,60,VALID,0,
2009-04-27, 02:25:05,VALID,1009.61,VALID,0,VALID,4,VALID,0,VALID,24.1014,VALID,60,VALID,0,
2009-04-27, 02:26:05,VALID,1009.62,VALID,0,VALID,4,VALID,0,VALID,24.1227,VALID,60,VALID,0,
2009-04-27, 02:27:05,VALID,1009.62,VALID,0,VALID,4,VALID,0,VALID,24.1422,VALID,60,VALID,0,
2009-04-27, 02:28:05,VALID,1009.63,VALID,0,VALID,4,VALID,0,VALID,24.1617,VALID,35,VALID,0,
2009-04-27, 02:29:05,VALID,1009.57,VALID,0,VALID,4,VALID,0,VALID,24.1599,VALID,35,VALID,0,
2009-04-27, 02:30:05,VALID,1009.58,VALID,0,VALID,4,VALID,0,VALID,24.1599,VALID,35,VALID,0,
2009-04-27, 02:31:05,VALID,1009.55,VALID,0,VALID,4,VALID,0,VALID,24.1599,VALID,35,VALID,0,
2009-04-27, 02:32:05,VALID,1009.51,VALID,0,VALID,4,VALID,0.105969,VALID,24.1599,VALID,35,VALID,0,
2009-04-27, 02:33:05,VALID,1009.49,VALID,0,VALID,4,VALID,0.105969,VALID,24.1599,VALID,35,VALID,0,
2009-04-27, 02:34:05,VALID,1009.48,VALID,0,VALID,4,VALID,0.105969,VALID,24.1599,VALID,35,VALID,0,
2009-04-27, 02:35:05,VALID,1009.51,VALID,0,VALID,4,VALID,0,VALID,24.1385,VALID,35,VALID,0,
2009-04-27, 02:36:05,VALID,1009.48,VALID,0,VALID,4,VALID,0,VALID,24.1599,VALID,35,VALID,0,
2009-04-27, 02:37:05,VALID,1009.45,VALID,0,VALID,4,VALID,0.105969,VALID,24.1599,VALID,35,VALID,0,
2009-04-27, 02:38:05,VALID,1009.46,VALID,0,VALID,4,VALID,0.105969,VALID,24.1404,VALID,35,VALID,0,
2009-04-27, 02:39:05,VALID,1009.43,VALID,0,VALID,4,VALID,0.105969,VALID,24.1599,VALID,35,VALID,0,
2009-04-27, 02:40:05,VALID,1009.4,VALID,0,VALID,4,VALID,0.105969,VALID,24.1599,VALID,35,VALID,0,
2009-04-27, 02:41:05,VALID,1009.4,VALID,0,VALID,4,VALID,0.105969,VALID,24.1599,VALID,35,VALID,0,
2009-04-27, 02:42:05,VALID,1009.37,VALID,0,VALID,4,VALID,0,VALID,24.1793,VALID,35,VALID,0,
2009-04-27, 02:43:05,VALID,1009.36,VALID,0,VALID,4,VALID,0,VALID,24.1988,VALID,35,VALID,0,
2009-04-27, 02:44:05,VALID,1009.37,VALID,0,VALID,4,VALID,0,VALID,24.2202,VALID,35,VALID,0,
2009-04-27, 02:45:05,VALID,1009.35,VALID,0,VALID,4,VALID,0,VALID,24.2202,VALID,35,VALID,0,
2009-04-27, 02:46:05,VALID,1009.33,VALID,0,VALID,4,VALID,0,VALID,24.2378,VALID,35,VALID,0,
2009-04-27, 02:47:05,VALID,1009.31,VALID,0,VALID,4,VALID,0,VALID,24.2378,VALID,35,VALID,0,
2009-04-27, 02:48:05,VALID,1009.31,VALID,0,VALID,4,VALID,0,VALID,24.2591,VALID,35,VALID,0,
2009-04-27, 02:49:05,VALID,1009.29,VALID,0,VALID,4,VALID,0,VALID,24.2591,VALID,35,VALID,0,
2009-04-27, 02:50:05,VALID,1009.26,VALID,0,VALID,4,VALID,0,VALID,24.2396,VALID,35,VALID,0,
2009-04-27, 02:51:05,VALID,1009.26,VALID,0,VALID,4,VALID,0,VALID,24.2396,VALID,35,VALID,0,
2009-04-27, 02:52:05,VALID,1009.29,VALID,0,VALID,4,VALID,0,VALID,24.2396,VALID,35,VALID,0,
2009-04-27, 02:53:05,VALID,1009.3,VALID,0,VALID,4,VALID,0,VALID,24.1988,VALID,35,VALID,0,
2009-04-27, 02:54:05,VALID,1009.29,VALID,0,VALID,4,VALID,0,VALID,24.2202,VALID,35,VALID,0,
2009-04-27, 02:55:05,VALID,1009.29,VALID,0,VALID,4,VALID,0,VALID,24.2202,VALID,35,VALID,0,
2009-04-27, 02:56:05,VALID,1009.32,VALID,0,VALID,4,VALID,0,VALID,24.2202,VALID,35,VALID,0,
2009-04-27, 02:57:05,VALID,1009.32,VALID,0,VALID,4,VALID,0,VALID,24.2183,VALID,35,VALID,0,
2009-04-27, 02:58:05,VALID,1009.32,VALID,0,VALID,4,VALID,0,VALID,24.2396,VALID,35,VALID,0,
2009-04-27, 02:59:05,VALID,1009.33,VALID,0,VALID,4,VALID,0,VALID,24.2396,VALID,35,VALID,0,
2009-04-27, 03:00:05,VALID,1009.35,VALID,0,VALID,4,VALID,0,VALID,24.2202,VALID,35,VALID,0,
2009-04-27, 03:01:05,VALID,1009.34,VALID,0,VALID,4,VALID,0,VALID,24.2396,VALID,35,VALID,0,
2009-04-27, 03:02:05,VALID,1009.34,VALID,0,VALID,4,VALID,0,VALID,24.2183,VALID,35,VALID,0,
2009-04-27, 03:03:05,VALID,1009.35,VALID,0,VALID,4,VALID,0,VALID,24.2183,VALID,35,VALID,0,
2009-04-27, 03:04:05,VALID,1009.36,VALID,0,VALID,4,VALID,0,VALID,24.2768,VALID,35,VALID,0,
2009-04-27, 03:05:05,VALID,1009.34,VALID,0,VALID,4,VALID,0,VALID,24.2573,VALID,35,VALID,0,
2009-04-27, 03:06:05,VALID,1009.35,VALID,0,VALID,4,VALID,0,VALID,24.2786,VALID,35,VALID,0,
2009-04-27, 03:07:05,VALID,1009.37,VALID,0,VALID,4,VALID,0,VALID,24.2591,VALID,35,VALID,0,
2009-04-27, 03:08:05,VALID,1009.36,VALID,0,VALID,4,VALID,0,VALID,24.2378,VALID,35,VALID,0,
2009-04-27, 03:09:05,VALID,1009.37,VALID,0,VALID,4,VALID,0,VALID,24.2591,VALID,35,VALID,0,
2009-04-27, 03:10:05,VALID,1009.39,VALID,0,VALID,4,VALID,0,VALID,24.1988,VALID,35,VALID,0,
2009-04-27, 03:11:05,VALID,1009.37,VALID,0,VALID,4,VALID,0,VALID,24.1988,VALID,35,VALID,0,
2009-04-27, 03:12:05,VALID,1009.35,VALID,0,VALID,4,VALID,0,VALID,24.2202,VALID,35,VALID,0,
2009-04-27, 03:13:05,VALID,1009.36,VALID,0,VALID,4,VALID,0,VALID,24.1988,VALID,35,VALID,0,
2009-04-27, 03:14:05,VALID,1009.34,VALID,0,VALID,4,VALID,0,VALID,24.1988,VALID,35,VALID,0,
2009-04-27, 03:15:05,VALID,1009.34,VALID,0,VALID,4,VALID,0,VALID,24.2202,VALID,35,VALID,0,
2009-04-27, 03:16:05,VALID,1009.33,VALID,0,VALID,4,VALID,0,VALID,24.2007,VALID,35,VALID,0,
2009-04-27, 03:17:05,VALID,1009.35,VALID,0,VALID,4,VALID,0,VALID,24.1812,VALID,35,VALID,0,
2009-04-27, 03:18:05,VALID,1009.38,VALID,0,VALID,4,VALID,0,VALID,24.1812,VALID,35,VALID,0,
2009-04-27, 03:19:05,VALID,1009.39,VALID,0,VALID,4,VALID,0,VALID,24.1599,VALID,35,VALID,0,
2009-04-27, 03:20:05,VALID,1009.45,VALID,0,VALID,4,VALID,0,VALID,24.1599,VALID,35,VALID,0,
2009-04-27, 03:21:05,VALID,1009.44,VALID,0,VALID,4,VALID,0,VALID,24.1617,VALID,35,VALID,0,
2009-04-27, 03:22:05,VALID,1009.44,VALID,0,VALID,4,VALID,0,VALID,24.1617,VALID,35,VALID,0,
2009-04-27, 03:23:05,VALID,1009.45,VALID,0,VALID,4,VALID,0,VALID,24.1617,VALID,35,VALID,0,
2009-04-27, 03:24:05,VALID,1009.5,VALID,0,VALID,4,VALID,0,VALID,24.1404,VALID,35,VALID,0,
2009-04-27, 03:25:05,VALID,1009.47,VALID,0,VALID,4,VALID,0,VALID,24.1812,VALID,35,VALID,0,
2009-04-27, 03:26:05,VALID,1009.49,VALID,0,VALID,4,VALID,0,VALID,24.1812,VALID,35,VALID,0,
2009-04-27, 03:27:05,VALID,1009.52,VALID,0,VALID,4,VALID,0,VALID,24.1599,VALID,35,VALID,0,
2009-04-27, 03:28:05,VALID,1009.51,VALID,0,VALID,4,VALID,0,VALID,24.1404,VALID,35,VALID,0,
2009-04-27, 03:29:05,VALID,1009.52,VALID,0,VALID,4,VALID,0,VALID,24.1422,VALID,35,VALID,0,
2009-04-27, 03:30:05,VALID,1009.54,VALID,0,VALID,4,VALID,0,VALID,24.1422,VALID,35,VALID,0,
2009-04-27, 03:31:05,VALID,1009.56,VALID,0,VALID,4,VALID,0,VALID,24.1404,VALID,35,VALID,0,
2009-04-27, 03:32:05,VALID,1009.55,VALID,0,VALID,4,VALID,0,VALID,24.1404,VALID,35,VALID,0,
2009-04-27, 03:33:05,VALID,1009.54,VALID,0,VALID,4,VALID,0,VALID,24.1404,VALID,35,VALID,0,
2009-04-27, 03:34:05,VALID,1009.51,VALID,0,VALID,4,VALID,0,VALID,24.1404,VALID,35,VALID,0,
2009-04-27, 03:35:05,VALID,1009.49,VALID,0,VALID,4,VALID,0,VALID,24.1209,VALID,35,VALID,0,
2009-04-27, 03:36:05,VALID,1009.46,VALID,0,VALID,4,VALID,0,VALID,24.1209,VALID,35,VALID,0,
2009-04-27, 03:37:05,VALID,1009.42,VALID,0,VALID,4,VALID,0,VALID,24.1209,VALID,35,VALID,0,
2009-04-27, 03:38:05,VALID,1009.42,VALID,0,VALID,4,VALID,0,VALID,24.1422,VALID,35,VALID,0,
2009-04-27, 03:39:05,VALID,1009.4,VALID,0,VALID,4,VALID,0,VALID,24.1227,VALID,35,VALID,0,
2009-04-27, 03:40:05,VALID,1009.42,VALID,0,VALID,4,VALID,0,VALID,24.1014,VALID,35,VALID,0,
2009-04-27, 03:41:05,VALID,1009.42,VALID,0,VALID,4,VALID,0,VALID,24.1209,VALID,35,VALID,0,
2009-04-27, 03:42:05,VALID,1009.43,VALID,0,VALID,4,VALID,0,VALID,24.1032,VALID,35,VALID,0,
2009-04-27, 03:43:05,VALID,1009.43,VALID,0,VALID,4,VALID,0,VALID,24.1227,VALID,35,VALID,0,
2009-04-27, 03:44:05,VALID,1009.44,VALID,0,VALID,4,VALID,0,VALID,24.0624,VALID,35,VALID,0,
2009-04-27, 03:45:05,VALID,1009.46,VALID,0,VALID,4,VALID,0,VALID,24.0643,VALID,35,VALID,0,
2009-04-27, 03:46:05,VALID,1009.45,VALID,0,VALID,4,VALID,0,VALID,24.0643,VALID,35,VALID,0,
2009-04-27, 03:47:05,VALID,1009.47,VALID,0,VALID,4,VALID,0,VALID,24.0253,VALID,35,VALID,0,
2009-04-27, 03:48:05,VALID,1009.46,VALID,0,VALID,4,VALID,0,VALID,24.0253,VALID,35,VALID,0,
2009-04-27, 03:49:05,VALID,1009.47,VALID,0,VALID,4,VALID,0,VALID,24.0253,VALID,35,VALID,0,
2009-04-27, 03:50:05,VALID,1009.53,VALID,0,VALID,4,VALID,0,VALID,24.0448,VALID,35,VALID,0,
2009-04-27, 03:51:05,VALID,1009.57,VALID,0,VALID,4,VALID,0,VALID,24.0837,VALID,35,VALID,0,
2009-04-27, 03:52:05,VALID,1009.57,VALID,0,VALID,4,VALID,0,VALID,24.1032,VALID,35,VALID,0,
2009-04-27, 03:53:05,VALID,1009.59,VALID,0,VALID,4,VALID,0,VALID,24.1227,VALID,35,VALID,0,
2009-04-27, 03:54:05,VALID,1009.59,VALID,0,VALID,4,VALID,0,VALID,24.1422,VALID,35,VALID,0,
2009-04-27, 03:55:05,VALID,1009.62,VALID,0,VALID,4,VALID,0,VALID,24.1422,VALID,35,VALID,0,
2009-04-27, 03:56:05,VALID,1009.64,VALID,0,VALID,4,VALID,0,VALID,24.1422,VALID,35,VALID,0,
2009-04-27, 03:57:05,VALID,1009.63,VALID,0,VALID,4,VALID,0,VALID,24.1422,VALID,35,VALID,0,
2009-04-27, 03:58:05,VALID,1009.66,VALID,0,VALID,4,VALID,0,VALID,24.1422,VALID,35,VALID,0,
2009-04-27, 03:59:04,VALID,1009.67,VALID,0,VALID,4,VALID,0.105969,VALID,24.1209,VALID,35,VALID,0,
2009-04-27, 04:00:04,VALID,1009.67,VALID,0,VALID,4,VALID,0,VALID,24.1209,VALID,35,VALID,0,
2009-04-27, 04:01:04,VALID,1009.68,VALID,0,VALID,4,VALID,0,VALID,24.1209,VALID,35,VALID,0,
2009-04-27, 04:02:04,VALID,1009.68,VALID,0,VALID,4,VALID,0.105969,VALID,24.1404,VALID,35,VALID,0,
2009-04-27, 04:03:04,VALID,1009.66,VALID,0,VALID,4,VALID,0,VALID,24.1404,VALID,35,VALID,0,
2009-04-27, 04:04:04,VALID,1009.68,VALID,0,VALID,4,VALID,0,VALID,24.1209,VALID,35,VALID,0,
2009-04-27, 04:05:04,VALID,1009.71,VALID,0,VALID,4,VALID,0.105969,VALID,24.1209,VALID,35,VALID,0,
2009-04-27, 04:06:04,VALID,1009.73,VALID,0,VALID,4,VALID,0,VALID,24.1209,VALID,35,VALID,0,
2009-04-27, 04:07:04,VALID,1009.76,VALID,0,VALID,4,VALID,0.105969,VALID,24.1227,VALID,35,VALID,0,
2009-04-27, 04:08:04,VALID,1009.76,VALID,0,VALID,4,VALID,0.105969,VALID,24.0819,VALID,35,VALID,0,
2009-04-27, 04:09:04,VALID,1009.81,VALID,0,VALID,4,VALID,0.105969,VALID,24.0819,VALID,35,VALID,0,